Location: Abbey Hill
(34.0751°N, 84.0688°W)
Time: 01:47:51
(UTC+00:00)

Envisat - Pass Details

Date: 30 September 2021
Orbit: 764 x 766 km, 98.2° (Epoch: 17 October)

Event Time Altitude Azimuth Distance (km) Brightness Sun altitude
Rises 09:16:24 0° 40° (NE) 3,232 7.1 -28.2°
Reaches altitude 10° 09:21:00 10° 79° (E) 2,299 6.5 -27.3°
Maximum altitude 09:22:02 11° 91° (E) 2,258 6.3 -27.1°
Drops below altitude 10° 09:23:04 10° 103° (ESE) 2,296 6.2 -26.9°
Sets 09:27:37 0° 141° (SE) 3,215 6.5 -26.0°
